TimeMST,TemperatureF,Dew PointF,Humidity,Sea Level PressureIn,VisibilityMPH,Wind Direction,Wind SpeedMPH,Gust SpeedMPH,PrecipitationIn,Events,Conditions,WindDirDegrees,DateUTC
12:53 AM,35.1,21.9,59,30.03,10.0,Calm,Calm,-,N/A,,Clear,0,2013-01-19 07:53:00
1:53 AM,37.9,19.0,47,30.03,10.0,WNW,11.5,-,N/A,,Clear,290,2013-01-19 08:53:00
2:53 AM,30.0,19.0,64,30.06,10.0,SW,5.8,-,N/A,,Clear,220,2013-01-19 09:53:00
3:53 AM,30.0,18.0,61,30.11,10.0,Variable,3.5,-,N/A,,Clear,0,2013-01-19 10:53:00
4:53 AM,32.0,17.1,54,30.15,10.0,WSW,9.2,-,N/A,,Clear,240,2013-01-19 11:53:00
5:53 AM,30.9,18.0,59,30.18,10.0,West,12.7,-,N/A,,Clear,260,2013-01-19 12:53:00
6:53 AM,28.9,17.1,61,30.21,10.0,West,9.2,-,N/A,,Clear,260,2013-01-19 13:53:00
7:53 AM,27.0,17.1,66,30.24,10.0,WSW,9.2,-,N/A,,Clear,250,2013-01-19 14:53:00
8:53 AM,34.0,19.0,54,30.26,10.0,West,6.9,-,N/A,,Clear,260,2013-01-19 15:53:00
9:53 AM,42.1,21.0,43,30.25,10.0,WNW,10.4,-,N/A,,Clear,300,2013-01-19 16:53:00
10:53 AM,46.9,19.9,34,30.22,10.0,NW,12.7,-,N/A,,Clear,310,2013-01-19 17:53:00
11:53 AM,48.0,19.0,32,30.21,10.0,WNW,17.3,21.9,N/A,,Clear,300,2013-01-19 18:53:00
12:53 PM,46.9,19.0,33,30.22,10.0,WNW,17.3,-,N/A,,Clear,300,2013-01-19 19:53:00
1:53 PM,48.0,19.9,33,30.20,10.0,NW,17.3,23.0,N/A,,Clear,320,2013-01-19 20:53:00
2:53 PM,45.0,25.0,46,30.25,10.0,NE,16.1,20.7,N/A,,Clear,40,2013-01-19 21:53:00
3:10 PM,41.0,26.6,57,30.18,10.0,NE,12.7,-,N/A,,Clear,50,2013-01-19 22:10:00
3:53 PM,39.9,26.1,58,30.29,10.0,ENE,11.5,-,N/A,,Clear,60,2013-01-19 22:53:00
4:53 PM,34.0,25.0,70,30.32,10.0,East,3.5,-,N/A,,Clear,100,2013-01-19 23:53:00
5:53 PM,32.0,25.0,75,30.33,10.0,ENE,3.5,-,N/A,,Clear,60,2013-01-20 00:53:00
6:53 PM,28.9,24.1,82,30.35,10.0,Calm,Calm,-,N/A,,Clear,0,2013-01-20 01:53:00
7:53 PM,28.9,24.1,82,30.35,10.0,Calm,Calm,-,N/A,,Clear,0,2013-01-20 02:53:00
8:53 PM,27.0,23.0,85,30.32,10.0,Calm,Calm,-,N/A,,Clear,0,2013-01-20 03:53:00
9:53 PM,25.0,21.9,88,30.30,10.0,Calm,Calm,-,N/A,,Clear,0,2013-01-20 04:53:00
10:53 PM,24.1,21.0,88,30.27,10.0,Calm,Calm,-,N/A,,Clear,0,2013-01-20 05:53:00
11:53 PM,21.9,19.0,89,30.24,10.0,Calm,Calm,-,N/A,,Clear,0,2013-01-20 06:53:00